Location: Miles
(41.4492°N, 81.6087°W)
Time: 22:53:16
(UTC+00:00)

Courier 1B - Pass Details

Date: 11 September 2024
Orbit: 962 x 1208 km, 28.3° (Epoch: 02 October)

Event Time Altitude Azimuth Distance (km) Brightness Sun altitude
Rises 00:47:22 0° 257° (WSW) 4,098 11.9 -12.6°
Reaches altitude 10° 00:50:44 10° 245° (WSW) 3,141 10.9 -13.2°
Maximum altitude 00:56:55 26° 193° (SSW) 2,172 9.3 -14.3°
Enters shadow 01:02:09 13° 145° (SE) 2,880 9.5 -15.2°
